Location: Vancouver
(49.2500°N, 123.1330°W)
Time: 23:41:57
(UTC-07:00)

S-56A Canister/Altair - Visible Passes

Search period start: 25 August 2016 00:00
Search period end: 04 September 2016 00:00
Orbit: 640 x 2494 km, 38.9° (Epoch: 24 August)

Date Brightness Start Highest point End Pass type
(mag) Time Alt. Az. Time Alt. Az. Time Alt. Az.
25 Aug 11.1 00:46:19 15° ESE 00:46:19 15° ESE 00:50:13 10° E visible
25 Aug 10.3 02:43:43 34° S 02:46:39 37° SSE 02:57:19 10° E visible
25 Aug 9.8 04:41:08 18° WSW 04:51:36 50° S 05:01:27 10° ESE visible
26 Aug 11.3 00:15:13 12° ESE 00:15:13 12° ESE 00:16:37 10° ESE visible
26 Aug 10.3 02:12:37 35° SSE 02:13:43 35° SSE 02:24:40 10° E visible
26 Aug 9.9 04:10:02 24° SW 04:18:43 50° S 04:29:06 10° ESE visible
27 Aug 10.4 01:41:29 33° SE 01:41:29 33° SE 01:51:55 10° E visible
27 Aug 9.9 03:38:54 31° SW 03:45:45 50° S 03:56:42 10° E visible
27 Aug 9.8 05:37:46 10° W 05:50:44 49° SSW 06:00:03 10° ESE visible
28 Aug 10.6 01:10:21 30° SE 01:10:21 30° SE 01:19:03 10° E visible
28 Aug 10.0 03:07:45 38° SSW 03:12:45 49° SSE 03:24:12 10° E visible
28 Aug 9.8 05:05:10 12° WSW 05:17:54 51° S 05:27:50 10° ESE visible
29 Aug 10.7 00:39:11 25° ESE 00:39:11 25° ESE 00:46:03 10° E visible
29 Aug 10.0 02:36:35 43° SSW 02:39:42 48° SSE 02:51:38 10° E visible
29 Aug 9.8 04:33:59 18° WSW 04:45:00 53° S 04:55:33 10° ESE visible
30 Aug 10.9 00:08:00 20° ESE 00:08:00 20° ESE 00:12:55 10° E visible
30 Aug 10.0 02:05:25 46° S 02:06:39 47° SSE 02:18:58 10° E visible
30 Aug 9.9 04:02:49 25° WSW 04:12:02 54° S 04:23:12 10° ESE visible
30 Aug 11.1 23:36:51 16° ESE 23:36:51 16° ESE 23:39:38 10° E visible
31 Aug 10.1 01:34:14 45° SSE 01:34:14 45° SSE 01:46:13 10° E visible
31 Aug 9.9 03:31:39 32° WSW 03:38:59 55° S 03:50:44 10° ESE visible
31 Aug 10.0 05:30:57 10° W 05:43:56 43° SSW 05:53:44 10° SE visible
31 Aug 11.3 23:05:41 11° E 23:05:41 11° E 23:06:10 10° E visible
01 Sep 10.3 01:03:05 40° SE 01:03:05 40° SE 01:13:22 10° E visible
01 Sep 9.9 03:00:30 40° SW 03:05:55 55° S 03:18:13 10° ESE visible
01 Sep 9.9 04:57:55 11° W 05:11:06 46° SSW 05:21:33 10° SE visible
01 Sep11.422:34:34E22:34:34E22:12:04Svisible
02 Sep 10.5 00:31:58 34° ESE 00:31:58 34° ESE 00:40:24 10° E visible
02 Sep 9.9 02:29:23 48° SSW 02:32:48 55° S 02:45:36 10° ESE visible
02 Sep 9.9 04:26:48 17° W 04:38:11 49° SSW 04:49:17 10° SE visible
02 Sep11.122:03:29E22:03:29E21:43:14SSEvisible
03 Sep 10.7 00:00:55 27° ESE 00:00:55 27° ESE 00:07:21 10° E visible
03 Sep 9.9 01:58:20 53° S 01:59:40 54° S 02:12:52 10° E visible
03 Sep 9.9 03:55:45 24° WSW 04:05:12 51° SSW 04:16:54 10° SE visible
03 Sep 10.3 05:57:56 10° W 06:09:28 31° SW 06:18:38 10° SSE visible
03 Sep 10.9 21:13:01 10° SSE 21:14:32 12° SE 21:14:32 12° SE visible
03 Sep 10.9 23:09:46 10° SSW 23:29:57 21° E 23:34:11 10° E visible
